This is the latest recevied weather packets stored in our database for station/object WC4PEM-6. If no packets are shown the sender has not sent any weather packets the latest 10 day(s).
| Time | Temp. | Humidity | Pressure | Rain* | Wind** | Luminosity | Snow |
|---|---|---|---|---|---|---|---|
| 1777589418 | 28.33° C | 58% | 1009.6 hPa | 0 mm | - | - | - |
| 1777589118 | 28.33° C | 58% | 1009.6 hPa | 0 mm | - | - | - |
| 1777588897 | 27.78° C | 58% | 1009.7 hPa | 0 mm | - | - | - |
| 1777588818 | 27.78° C | 58% | 1009.7 hPa | 0 mm | - | - | - |
| 1777588518 | 28.33° C | 58% | 1009.6 hPa | 0 mm | - | - | - |
| 1777588218 | 28.33° C | 57% | 1009.6 hPa | 0 mm | - | - | - |
| 1777588009 | 28.33° C | 57% | 1009.6 hPa | 0 mm | - | - | - |
| 1777587918 | 28.33° C | 57% | 1009.6 hPa | 0 mm | - | - | - |
| 1777587618 | 28.33° C | 56% | 1009.7 hPa | 0 mm | - | - | - |
| 1777587318 | 28.89° C | 55% | 1009.8 hPa | 0 mm | - | - | - |
| 1777587074 | 28.89° C | 54% | 1009.9 hPa | 0 mm | - | - | - |
| 1777587018 | 28.89° C | 54% | 1009.9 hPa | 0 mm | - | - | - |
| 1777586718 | 29.44° C | 54% | 1009.7 hPa | 0 mm | - | - | - |
| 1777586477 | 29.44° C | 53% | 1009.7 hPa | 0 mm | - | - | - |
| 1777586418 | 29.44° C | 53% | 1009.7 hPa | 0 mm | - | - | - |
| 1777586118 | 28.89° C | 53% | 1009.8 hPa | 0 mm | - | - | - |
| 1777585818 | 28.89° C | 53% | 1009.7 hPa | 0 mm | - | - | - |
| 1777585599 | 28.89° C | 52% | 1009.7 hPa | 0 mm | - | - | - |
| 1777585563 | 28.89° C | 52% | 1009.7 hPa | 0 mm | - | - | - |
| 1777585518 | 28.89° C | 52% | 1009.7 hPa | 0 mm | - | - | - |
| 1777585280 | 28.89° C | 51% | 1009.7 hPa | 0 mm | - | - | - |
| 1777585218 | 28.89° C | 51% | 1009.7 hPa | 0 mm | - | - | - |
| 1777585007 | 29.44° C | 51% | 1009.7 hPa | 0 mm | - | - | - |
| 1777584918 | 29.44° C | 51% | 1009.7 hPa | 0 mm | - | - | - |
| 1777584618 | 29.44° C | 51% | 1009.6 hPa | 0 mm | - | - | - |
* Rain latest hour (hover to see other rain measurements)
** Current wind speed in m/s (hover to see current wind gust speed)